RH
6 6 5 5 5 6 6 6 7 7 8 10 11 12 13 13 13 14 16 17 19 21 22 22 22 22 23 25 26 28 27 26 27 26 25 26 25 26 29 35 41 46 51 55 56 55 54 53 51 52 55 57 58 53 52 49 46 48 43 38 40 43 44 45 47 49 51 53 56 58 56 51 47 46 47 49 54 57 58 58 58 58 57 59 61 61 62 65
5 5 5 5 5 5 5 6 6 7 7 9 11 12 11 12 12 12 14 14 16 19 21 22 22 21 22 24 25 26 26 25 27 26 25 25 25 26 29 35 40 46 54 56 56 56 54 52 52 54 56 58 57 51 51 50 48 46 38 34 38 42 42 42 43 45 46 46 48 53 54 51 47 46 47 49 53 55 57 56 55 55 55 55 57 59 61 62
6 5 5 5 5 5 5 5 6 6 6 7 10 11 12 11 11 11 12 12 14 16 18 20 21 21 21 22 23 25 25 25 27 27 26 25 24 25 28 33 36 42 51 53 53 52 48 47 52 56 57 57 54 49 48 49 47 42 36 36 37 39 40 40 41 43 44 42 43 47 49 48 48 47 47 49 52 53 56 56 54 55 54 53 54 55 57 59
6 6 5 5 5 5 5 4 4 5 5 6 7 10 11 11 11 10 10 11 12 13 15 17 19 20 21 21 22 23 23 26 27 26 26 24 23 24 26 29 33 39 44 45 47 48 46 44 48 53 54 53 49 45 44 43 42 38 36 37 36 38 41 42 41 43 45 44 43 44 44 44 44 46 48 49 51 52 54 52 50 52 50 50 53 53 53 55
7 6 6 5 5 5 5 4 4 4 4 5 6 8 10 11 11 10 10 10 11 12 13 14 16 18 19 20 21 22 23 27 28 24 25 23 21 23 23 25 30 33 35 37 40 44 46 43 45 49 52 51 47 44 43 40 39 37 35 35 37 39 42 42 42 42 44 46 46 45 44 43 41 44 48 48 49 49 49 48 46 47 48 49 50 51 52 52
8 7 6 6 5 5 5 4 4 4 4 4 5 6 7 9 10 11 10 10 10 10 11 12 13 15 17 19 20 20 22 26 25 23 22 21 20 22 22 23 24 26 30 33 35 37 41 41 42 47 48 49 49 47 44 42 39 37 35 36 38 40 42 43 42 42 45 48 47 46 44 43 42 43 45 46 45 43 44 45 46 47 48 49 49 49 51 51
9 8 7 6 6 5 5 5 4 4 4 4 4 4 5 6 8 9 10 10 9 10 10 11 12 12 14 17 19 19 19 22 24 23 21 20 20 20 21 22 22 23 27 29 31 31 34 37 38 41 43 45 48 46 44 44 40 37 37 36 37 38 41 42 40 41 45 47 47 46 45 42 43 42 42 45 43 42 46 46 46 48 50 51 51 50 49 48
9 9 8 7 6 6 5 5 5 5 4 4 4 4 4 4 5 7 8 9 9 10 10 10 11 11 12 14 16 17 18 20 23 22 20 20 20 19 19 20 21 22 24 26 28 29 30 34 34 35 39 43 47 46 44 43 39 38 38 38 38 39 40 41 40 41 44 46 45 45 44 43 44 42 40 44 45 44 47 48 48 49 50 51 50 50 49 48
10 9 8 8 7 6 6 5 5 5 5 4 4 4 4 4 4 5 5 7 8 9 10 9 10 11 11 11 13 15 16 19 21 21 22 20 19 18 18 18 20 21 21 24 26 27 29 31 31 31 35 40 44 45 45 43 40 39 38 40 42 42 41 40 40 41 42 42 43 44 44 44 46 44 43 44 46 46 46 49 50 50 50 49 49 48 49 48
10 10 9 8 8 7 7 6 5 5 5 5 4 4 4 4 4 4 4 5 6 7 8 9 9 10 10 11 11 13 16 18 19 20 22 21 19 18 17 17 18 20 20 22 25 28 31 32 31 31 34 38 40 43 45 43 41 39 40 43 44 44 43 42 42 41 39 39 40 45 47 46 45 47 48 46 45 46 47 49 49 50 50 48 47 47 48 49
10 10 10 9 9 9 8 7 6 6 5 5 5 5 4 4 4 4 4 3 4 5 6 7 8 9 9 10 11 12 15 17 17 18 20 21 20 18 17 17 17 19 19 21 24 28 33 35 32 32 35 35 35 41 44 42 42 42 44 47 46 45 44 45 48 45 41 38 38 44 48 46 45 47 49 47 45 46 48 49 48 48 49 47 47 47 47 48
9 9 10 10 9 9 9 8 7 7 6 6 5 5 5 5 4 4 4 4 3 4 4 5 7 7 8 9 10 11 13 15 17 19 19 20 20 19 18 17 17 19 19 21 23 27 33 36 35 33 33 31 32 40 42 41 42 45 46 47 46 45 46 47 49 48 43 40 37 41 45 45 45 47 48 47 45 45 47 49 48 47 47 47 46 45 46 47
9 9 9 9 9 10 9 9 8 8 7 7 6 6 5 5 5 5 4 4 3 3 3 4 5 6 7 7 8 10 11 13 14 15 16 17 19 19 19 18 17 18 19 21 22 26 31 34 35 32 30 31 32 36 41 43 44 46 47 47 46 47 49 49 48 48 45 43 40 40 44 46 47 48 47 46 47 47 49 49 48 48 47 48 47 45 45 45
8 9 9 9 9 9 10 9 9 9 8 8 7 7 7 8 7 6 5 4 4 4 3 3 4 5 5 6 7 8 9 9 11 11 12 15 17 17 18 18 17 17 18 20 21 24 28 31 32 30 30 35 32 29 37 45 45 46 48 50 50 47 47 47 46 47 47 46 43 43 48 50 49 48 46 48 51 50 50 49 49 50 48 47 47 46 45 45
9 9 9 9 9 9 9 10 10 9 9 8 8 8 10 10 10 9 7 6 5 4 4 3 4 5 5 5 6 7 9 8 8 9 11 13 14 15 16 16 17 16 16 18 20 22 25 28 30 29 33 36 32 28 35 42 44 46 48 49 49 46 44 45 44 46 46 45 43 43 49 52 48 47 47 50 51 49 48 49 50 50 50 48 47 47 46 46
10 9 8 8 9 9 9 9 9 9 9 10 10 11 12 11 10 10 10 8 7 6 4 4 5 6 6 5 5 6 8 8 8 9 11 12 13 14 14 14 14 14 15 16 17 19 22 24 26 28 32 33 32 32 34 38 42 45 47 47 46 45 45 45 43 44 43 43 44 43 47 50 47 45 47 49 51 49 46 48 51 51 50 48 49 49 46 47
12 11 10 8 8 8 9 9 9 9 10 12 12 12 12 11 10 10 11 9 9 8 6 5 6 7 6 4 4 5 6 7 7 8 10 10 11 12 12 12 12 12 12 14 15 17 19 21 23 26 29 31 30 31 32 36 41 43 43 44 42 42 44 44 43 44 43 43 44 44 45 46 45 43 43 48 52 51 49 50 53 51 48 49 50 49 48 49
13 12 11 10 9 8 8 8 9 8 9 11 12 12 12 10 11 12 12 10 8 9 8 7 7 7 5 4 4 4 4 5 5 6 7 8 9 9 10 10 10 11 12 13 13 15 17 19 21 25 27 28 28 29 31 34 40 41 39 39 38 38 41 41 40 42 42 42 43 46 45 43 44 42 42 48 52 53 52 53 54 50 45 48 51 50 48 49
14 13 12 11 10 9 8 8 8 8 9 10 11 11 11 10 11 12 11 10 9 10 10 8 7 7 6 6 5 5 5 5 5 5 5 6 6 7 8 8 8 9 11 13 13 13 16 18 19 22 24 25 28 31 30 31 37 39 38 37 35 35 38 39 38 38 40 41 42 44 44 43 44 42 43 48 50 52 54 56 55 48 43 45 48 49 50 50
15 14 13 12 11 10 9 8 8 9 10 11 11 10 10 11 11 12 11 10 10 10 10 9 8 8 8 7 6 6 6 5 5 5 5 6 6 6 7 7 8 9 10 11 13 12 14 17 19 20 22 23 26 29 29 31 35 38 37 36 32 31 35 36 36 37 38 41 42 42 41 43 43 42 44 47 51 53 53 56 56 47 45 47 46 49 51 50
17 15 14 12 12 10 10 9 8 9 11 12 12 11 11 12 12 13 12 11 10 10 9 9 9 9 8 9 8 7 8 7 6 6 6 6 6 6 7 9 9 10 10 10 11 12 13 15 17 18 20 20 22 25 29 33 33 34 35 33 29 29 31 31 33 37 39 39 40 41 42 43 42 43 45 48 53 55 52 54 54 48 49 51 49 50 47 43
17 16 15 14 12 11 11 11 9 10 12 12 13 13 13 12 12 12 12 12 11 9 9 8 8 8 8 9 8 8 8 8 8 7 7 7 7 6 7 8 9 10 9 10 10 12 12 14 14 15 17 17 20 24 27 29 29 30 32 30 28 28 28 29 33 37 38 39 39 40 42 44 45 45 46 51 57 57 53 53 52 49 52 52 49 48 46 43
19 17 17 15 13 12 12 12 11 12 13 12 13 14 14 13 13 11 11 12 11 9 8 8 8 8 7 7 8 9 9 8 8 8 8 8 7 7 7 7 8 8 8 9 10 11 12 12 12 14 15 15 21 24 24 25 25 26 28 28 27 26 27 30 34 36 37 39 39 41 45 47 47 47 49 56 59 57 55 54 51 49 51 50 48 47 47 48
20 18 17 16 15 13 13 13 13 13 13 13 14 14 14 13 12 11 10 11 11 9 8 7 7 7 7 7 7 8 9 8 9 8 9 9 8 8 7 6 6 7 7 8 9 10 10 10 10 12 13 15 18 20 20 22 24 25 25 26 25 24 25 28 32 34 36 39 39 42 47 49 49 48 52 57 57 55 56 55 53 51 51 51 49 50 51 51
20 19 18 17 15 14 14 14 15 15 14 14 14 14 13 12 11 11 12 12 12 10 8 7 8 8 7 6 6 7 8 8 8 8 8 8 8 8 8 7 6 6 7 7 8 9 9 9 10 10 12 14 15 15 16 20 24 25 24 24 23 24 24 25 29 32 37 41 39 40 46 50 51 49 53 56 55 56 56 55 53 52 54 53 49 53 54 52
20 19 19 18 17 15 15 15 16 15 15 15 15 14 13 13 11 11 13 15 14 11 9 8 8 8 7 6 6 7 8 8 8 8 8 8 8 9 8 8 7 7 7 7 7 8 8 8 9 10 10 12 14 13 15 19 23 23 22 23 23 24 24 25 28 32 36 38 36 36 41 47 48 47 52 55 53 56 57 55 53 52 54 53 49 52 55 53
19 18 19 18 18 16 15 15 15 15 14 14 14 14 13 11 12 12 14 19 17 12 10 9 8 8 8 8 7 7 8 8 6 7 8 8 8 8 9 9 8 7 7 7 7 7 7 7 8 9 8 10 12 12 14 18 20 21 21 22 23 23 24 24 25 27 30 32 35 35 37 44 46 46 52 54 53 57 57 54 53 51 52 51 49 50 52 52
19 18 18 18 18 18 17 15 14 14 14 14 13 13 12 12 13 13 16 20 17 12 11 10 10 10 8 9 9 8 8 7 6 7 7 7 8 8 9 9 8 9 9 8 8 7 7 7 8 9 9 10 10 10 14 17 18 19 22 22 22 22 23 23 22 22 24 27 34 36 36 42 48 49 51 52 52 55 54 51 52 50 48 49 50 49 48 50
18 18 18 17 18 19 17 16 15 15 15 13 13 12 12 14 14 16 20 19 13 11 12 13 14 13 11 11 10 9 9 8 7 7 8 7 8 7 8 9 9 10 10 9 8 7 7 7 8 10 10 10 10 9 13 18 19 19 21 21 21 22 22 22 22 22 22 23 28 31 32 39 48 50 47 48 50 49 47 46 48 48 46 47 46 45 45 48
18 18 17 16 17 17 18 17 17 17 16 14 13 12 13 15 17 21 24 18 13 13 13 14 16 16 15 13 12 11 10 10 9 7 7 8 8 7 8 9 9 10 10 10 8 8 7 7 8 9 9 9 9 9 11 16 19 19 21 22 21 21 22 24 27 25 22 24 26 24 26 35 46 46 40 40 42 41 41 42 43 45 45 45 43 43 45 46
19 18 18 17 16 16 17 17 18 19 17 15 14 13 14 17 20 24 22 17 16 17 15 15 17 16 16 14 13 12 11 10 9 7 7 7 8 8 8 9 10 10 10 10 8 9 7 7 7 7 8 8 8 9 9 13 16 18 20 19 18 21 24 28 31 27 24 27 27 23 23 29 37 38 34 35 38 37 38 38 39 41 44 45 43 43 45 46
19 18 18 18 16 16 16 16 18 19 18 16 15 15 17 19 21 22 19 15 18 20 18 18 18 16 16 14 12 12 11 9 8 7 7 8 8 9 8 10 11 10 11 10 8 9 8 7 6 6 8 7 8 9 10 11 13 15 18 17 18 22 24 28 31 28 27 28 25 23 24 28 32 32 31 33 37 38 36 34 35 39 43 45 44 44 45 47
21 18 17 18 17 16 15 16 16 17 17 16 15 17 20 22 22 19 16 16 18 21 21 20 18 17 16 14 12 11 11 10 8 8 8 8 9 9 9 9 10 10 10 10 9 8 8 7 6 6 8 8 9 11 11 12 13 14 15 17 20 20 20 25 29 26 26 26 21 21 24 29 32 30 29 32 35 36 33 31 34 37 41 45 45 45 45 46
23 19 17 17 17 15 14 15 16 16 17 15 16 20 21 21 21 18 16 19 19 20 22 20 18 17 16 15 12 11 11 10 9 8 9 8 9 10 9 9 9 9 9 9 8 8 8 8 8 8 10 10 10 12 12 12 13 14 14 14 15 15 16 21 24 23 23 22 18 19 22 28 32 30 29 31 31 33 32 31 33 36 41 46 48 48 48 48
24 21 19 17 16 16 14 15 16 17 17 16 19 23 21 19 19 17 17 20 20 21 22 18 16 17 16 14 12 11 10 10 9 9 9 9 9 10 10 9 9 9 9 8 8 7 8 10 10 9 10 10 10 11 11 11 11 12 14 12 11 13 14 17 19 19 20 18 18 21 26 29 32 31 30 30 31 34 34 33 35 37 42 47 49 49 49 50
26 22 20 18 16 16 14 14 17 18 17 19 22 22 20 18 17 17 19 20 20 22 22 19 17 17 17 15 12 11 10 10 10 9 9 10 9 9 9 9 8 8 9 8 9 8 9 10 10 9 10 10 10 11 11 12 12 12 12 12 12 13 12 15 17 16 17 16 17 24 30 30 30 32 33 34 37 41 41 40 41 44 47 50 50 51 51 51
29 22 20 18 17 16 14 16 20 19 18 21 23 21 19 18 16 18 20 20 21 22 22 21 19 18 18 17 15 15 14 12 11 10 9 9 10 9 9 9 9 8 8 8 8 9 10 10 11 10 11 11 11 11 11 11 13 13 12 13 12 13 13 13 15 16 17 17 19 26 32 31 33 37 39 40 43 46 46 46 48 51 53 53 53 54 54 53
31 23 20 19 18 16 16 20 23 22 21 23 24 22 21 19 16 18 21 21 22 22 21 22 20 18 19 19 19 18 17 16 14 12 10 11 11 10 9 10 10 9 9 8 8 10 9 10 11 12 11 12 11 11 11 11 12 13 13 13 12 13 13 12 14 15 16 19 24 31 36 36 38 39 39 40 44 46 47 48 50 52 53 55 55 55 55 54
31 26 24 20 18 16 16 21 23 22 23 24 25 22 20 18 16 17 20 21 22 22 21 20 19 18 18 18 19 19 18 17 16 14 12 12 12 11 10 10 10 10 10 9 9 10 10 10 12 13 12 12 12 11 12 12 12 13 13 13 12 13 13 12 13 13 14 19 26 33 38 40 40 41 39 40 43 45 47 49 49 50 52 53 53 53 55 54
32 33 29 20 19 17 17 21 22 23 25 25 24 20 17 17 16 17 20 21 22 22 21 19 17 18 18 18 18 18 18 18 16 14 13 13 12 11 11 11 10 11 10 10 10 11 11 10 12 13 13 12 12 12 12 13 13 13 14 13 13 13 13 12 13 12 12 17 24 34 40 41 40 41 42 41 42 44 46 47 49 50 52 52 52 52 53 54
35 41 33 22 21 19 19 23 24 24 25 25 23 19 17 17 17 17 19 21 22 23 20 18 17 17 18 19 19 18 19 19 18 15 13 12 12 11 11 11 11 11 11 12 12 11 11 11 12 13 13 12 13 12 12 13 13 14 14 14 14 13 13 13 14 14 13 13 19 29 38 41 41 43 44 43 42 43 46 48 51 53 53 55 56 54 55 57
39 43 32 24 25 21 20 25 24 23 23 23 22 18 17 17 17 17 19 20 22 22 20 17 16 16 18 20 20 19 20 19 19 17 14 12 11 11 11 11 10 11 12 12 12 12 13 12 11 13 13 12 12 12 12 12 13 15 15 14 15 15 14 13 14 16 15 14 17 29 39 42 43 46 47 45 43 44 49 52 52 53 55 58 59 58 59 60
43 41 29 25 27 22 22 26 24 23 23 22 20 18 16 17 17 17 18 19 22 21 20 18 15 16 19 19 20 21 20 19 19 18 15 13 12 11 11 11 11 11 11 12 13 13 14 13 12 14 17 15 12 13 14 13 15 16 16 15 14 15 14 13 15 17 17 17 21 34 47 47 44 48 48 46 48 51 53 54 53 54 57 59 60 61 61 60
45 42 35 31 27 23 25 27 25 24 23 22 20 18 16 16 17 17 17 19 21 21 20 18 16 17 19 18 19 21 20 19 19 18 16 14 13 11 12 11 12 12 12 13 13 13 14 15 14 14 17 17 15 16 16 15 16 16 17 16 16 16 17 17 19 19 21 24 28 37 49 51 46 48 48 49 54 56 56 55 55 56 58 59 61 63 63 61
44 43 41 36 30 26 27 27 23 22 23 23 21 19 17 16 17 17 17 19 20 20 18 17 16 17 18 18 20 20 19 19 19 18 17 15 13 12 12 12 13 14 14 13 13 13 15 17 18 18 17 17 19 19 17 17 17 17 17 17 17 19 20 21 24 26 26 33 37 40 48 52 49 50 53 54 55 55 55 55 56 57 59 62 65 66 65 62
46 48 48 40 33 30 29 28 25 22 22 22 21 19 17 16 17 17 17 18 19 18 17 16 16 17 19 19 20 20 19 18 18 18 18 16 15 13 12 13 16 18 17 17 14 15 17 18 21 24 22 19 19 20 19 19 19 19 18 19 20 23 24 25 31 32 31 37 42 42 46 52 52 52 54 54 52 52 54 55 56 59 62 64 68 68 65 62
47 53 54 47 41 37 32 31 29 26 24 24 23 21 17 17 18 17 17 18 18 17 16 16 15 17 19 19 20 21 20 18 18 18 18 18 18 17 15 16 19 21 21 20 18 19 20 18 19 22 21 18 18 18 20 22 23 23 22 22 24 27 26 27 32 35 36 37 42 44 45 47 48 48 48 50 50 50 52 55 58 60 62 65 66 64 62 61
49 51 53 51 50 46 40 36 34 32 30 27 26 24 21 19 19 18 18 18 18 17 16 16 16 17 19 19 20 21 20 18 18 18 18 20 21 22 21 21 23 23 22 23 22 23 22 19 17 17 18 18 17 16 21 24 25 26 26 26 28 30 29 29 30 33 36 37 40 45 45 43 44 43 43 47 51 51 54 58 58 59 62 64 64 61 60 59
50 51 53 53 53 51 47 43 40 38 36 32 28 26 24 22 21 20 18 19 19 17 16 15 16 17 19 19 20 21 20 19 19 20 20 22 23 24 25 25 25 24 24 25 25 24 22 21 19 16 17 20 18 17 22 26 26 28 29 27 29 32 33 36 37 37 38 39 39 43 46 47 47 47 47 50 54 57 59 61 59 59 61 63 62 60 59 58
53 51 54 59 58 54 51 47 44 43 40 36 31 27 24 23 21 20 20 20 20 18 16 15 15 17 18 19 20 20 20 19 20 22 21 22 23 24 25 26 26 25 25 27 27 24 21 24 25 19 18 22 20 18 22 26 26 29 31 29 30 34 36 39 41 40 40 41 41 42 46 51 52 52 53 55 59 62 63 63 61 60 61 63 62 61 60 58
57 49 53 62 62 56 52 49 45 44 42 37 30 26 25 24 21 20 21 21 20 20 17 15 16 16 17 19 19 19 18 19 20 21 21 20 22 23 24 25 25 26 27 28 29 27 24 26 27 23 22 23 21 19 24 28 28 29 32 33 36 40 42 42 41 41 40 42 43 44 47 50 51 53 57 61 64 65 66 66 65 63 63 63 62 62 61 58
62 52 51 59 62 56 52 49 47 46 45 39 30 25 25 23 21 22 24 23 21 20 18 16 16 17 16 17 18 18 18 19 20 20 20 19 21 23 24 25 24 25 27 29 30 29 28 28 28 26 24 25 24 23 25 30 34 34 35 37 39 41 42 41 40 40 40 40 43 45 45 47 50 54 58 63 66 68 68 68 66 65 65 65 65 64 62 58